TimePST,TemperatureF,Dew PointF,Humidity,Sea Level PressureIn,VisibilityMPH,Wind Direction,Wind SpeedMPH,Gust SpeedMPH,PrecipitationIn,Events,Conditions,WindDirDegrees,DateUTC
12:56 AM,21.0,15.1,78,30.23,10.0,SW,4.6,-,N/A,,Overcast,220,2012-12-28 08:56:00
1:56 AM,21.0,14.0,74,30.24,10.0,Calm,Calm,-,N/A,,Overcast,0,2012-12-28 09:56:00
2:56 AM,19.0,14.0,81,30.24,10.0,Calm,Calm,-,N/A,,Overcast,0,2012-12-28 10:56:00
3:56 AM,18.0,12.0,78,30.25,10.0,Calm,Calm,-,N/A,,Overcast,0,2012-12-28 11:56:00
4:56 AM,19.0,12.9,77,30.26,10.0,Calm,Calm,-,N/A,,Overcast,0,2012-12-28 12:56:00
5:56 AM,12.0,6.1,77,30.30,10.0,NNW,4.6,-,N/A,,Partly Cloudy,340,2012-12-28 13:56:00
6:56 AM,10.0,6.1,84,30.35,10.0,East,4.6,-,N/A,,Clear,90,2012-12-28 14:56:00
7:56 AM,8.1,5.0,87,30.37,10.0,East,6.9,-,N/A,,Clear,90,2012-12-28 15:56:00
8:56 AM,10.0,5.0,80,30.37,10.0,ENE,5.8,-,N/A,,Clear,70,2012-12-28 16:56:00
9:56 AM,12.9,6.1,74,30.35,10.0,ENE,5.8,-,N/A,,Clear,70,2012-12-28 17:56:00
10:56 AM,16.0,9.0,74,30.31,10.0,East,5.8,-,N/A,,Clear,90,2012-12-28 18:56:00
11:56 AM,18.0,10.0,71,30.28,10.0,East,6.9,-,N/A,,Clear,80,2012-12-28 19:56:00
12:56 PM,19.9,10.9,68,30.25,10.0,NE,9.2,-,N/A,,Clear,50,2012-12-28 20:56:00
1:56 PM,19.0,10.0,68,30.26,10.0,ENE,9.2,-,N/A,,Clear,70,2012-12-28 21:56:00
2:56 PM,18.0,10.9,74,30.26,10.0,ENE,8.1,-,N/A,,Clear,60,2012-12-28 22:56:00
3:56 PM,18.0,10.0,71,30.27,10.0,ENE,6.9,-,N/A,,Clear,70,2012-12-28 23:56:00
4:56 PM,14.0,8.1,77,30.28,10.0,East,5.8,-,N/A,,Clear,90,2012-12-29 00:56:00
5:56 PM,12.0,7.0,80,30.31,10.0,ENE,3.5,-,N/A,,Clear,60,2012-12-29 01:56:00
6:56 PM,1.9,-2.0,83,30.38,9.0,Calm,Calm,-,N/A,,Clear,0,2012-12-29 02:56:00
7:56 PM,6.1,1.9,83,30.37,9.0,East,4.6,-,N/A,,Clear,80,2012-12-29 03:56:00
8:56 PM,3.9,1.0,88,30.36,10.0,NE,5.8,-,N/A,,Clear,50,2012-12-29 04:56:00
9:56 PM,3.9,1.0,88,30.35,10.0,ENE,3.5,-,N/A,,Clear,70,2012-12-29 05:56:00
10:56 PM,1.0,-2.0,87,30.35,8.0,East,3.5,-,N/A,,Clear,100,2012-12-29 06:56:00
11:56 PM,1.0,-2.9,83,30.34,10.0,East,10.4,-,N/A,,Clear,80,2012-12-29 07:56:00